Flag for Taiwan Weather past 2 weeks in Kaohsiung, Taiwan

Now
82 °F

Partly sunny.


Feels Like: 91 °F
Forecast: 77 / 89 °F
Wind: 3 mph from Northeast

Location: Kaohsiung International Airport

Current Time: Sep 4, 2015 at 8:17:41 AM

Latest Report: Sep 4, 2015 at 7:30 AM


Visibility: N/A

Pressure: 29.95 "Hg

Humidity: 84%

Dew point: 77 °F

Location of KaohsiungLocation

Historic Weather in Kaohsiung — Graph

°F

Kaohsiung temperature yesterday

Maximum temperature yesterday: 90 °F (at 12:00 PM)
Minimum temperature yesterday: 77 °F (at 6:00 AM)
Average temperature yesterday: 85 °F

Past Weeks' High & Low Weather Summary

 TemperatureHumidityPressure
High93 °F (Aug 24, 3:30 PM)100% (Aug 21, 7:00 AM)29.98 "Hg (Aug 21, 7:00 AM)
Low73 °F (Aug 29, 3:49 AM)52% (Sep 2, 12:30 PM)29.30 "Hg (Aug 23, 3:00 AM)
Average82 °F87%29.72 "Hg
* Reported Aug 20 7:00 AM — Sep 4 7:00 AM, Kaohsiung, Weather by CustomWeather, © 2015

Note: Actual official high and low records may vary slightly from our data, if they occured in-between our weather recording intervals... More about our weather records

Advertising

Kaohsiung weather history for previous 24 hours

 ConditionsComfort  
Time TempWeatherWind HumidityBarometerVisibility
7:00 AM
Fri, Sep 4
81 °FPartly sunny.3 mph89%29.95 "HgN/A
6:30 AM81 °FPartly sunny.3 mph89%29.95 "HgN/A
5:00 AM79 °FPartly cloudy.3 mph94%29.92 "HgN/A
4:00 AM79 °FScattered showers. Partly cloudy.3 mph94%29.92 "Hg5 mi
3:00 AM81 °FScattered showers. Partly cloudy.3 mph94%29.92 "Hg4 mi
2:00 AM81 °FScattered showers. Partly cloudy.5 mph94%29.95 "Hg4 mi
1:00 AM82 °FPartly cloudy.5 mph84%29.95 "HgN/A
12:00 AM84 °FPartly cloudy.3 mph84%29.98 "HgN/A
11:00 PM
Thu, Sep 3
82 °FPartly cloudy.5 mph89%29.98 "Hg5 mi
10:30 PM84 °FPartly cloudy.3 mph84%29.98 "Hg5 mi
10:00 PM84 °FPartly cloudy.5 mph84%29.98 "HgN/A
9:30 PM84 °FPartly cloudy.5 mph84%29.98 "HgN/A
9:00 PM84 °FPartly cloudy.2 mph84%29.95 "HgN/A
8:30 PM84 °FPartly cloudy.3 mph84%29.95 "HgN/A
8:00 PM84 °FPartly cloudy.3 mph84%29.95 "HgN/A
7:30 PM84 °FPartly cloudy.3 mph84%29.92 "HgN/A
7:00 PM86 °FPartly cloudy.3 mph79%29.92 "HgN/A
6:30 PM86 °FPartly cloudy.6 mph79%29.92 "HgN/A
6:00 PM86 °FBroken clouds.6 mph75%29.89 "HgN/A
5:30 PM88 °FBroken clouds.5 mph75%29.89 "HgN/A
5:00 PM88 °FBroken clouds.6 mph70%29.89 "HgN/A
4:30 PM88 °FBroken clouds.8 mph70%29.89 "HgN/A
4:00 PM90 °FBroken clouds.9 mph67%29.89 "HgN/A
3:30 PM88 °FBroken clouds.10 mph70%29.89 "HgN/A
3:00 PM90 °FPartly sunny.10 mph71%29.89 "HgN/A
2:30 PM90 °FPartly sunny.9 mph67%29.89 "HgN/A
2:00 PM90 °FBroken clouds.9 mph67%29.92 "HgN/A
1:30 PM90 °FBroken clouds.10 mph67%29.92 "HgN/A
1:00 PM90 °FBroken clouds.12 mph71%29.92 "HgN/A
12:30 PM90 °FBroken clouds.13 mph63%29.92 "HgN/A
12:00 PM90 °FBroken clouds.12 mph71%29.92 "HgN/A
11:30 AM88 °FBroken clouds.12 mph75%29.95 "HgN/A
11:00 AM88 °FBroken clouds.9 mph75%29.95 "HgN/A
10:30 AM88 °FBroken clouds.8 mph70%29.95 "HgN/A
10:00 AM88 °FBroken clouds.8 mph75%29.95 "HgN/A
9:30 AM88 °FBroken clouds.5 mph70%29.95 "HgN/A
9:00 AM88 °FPartly sunny.5 mph70%29.95 "HgN/A
8:30 AM86 °FPartly sunny.5 mph75%29.95 "HgN/A
8:00 AM84 °FPartly sunny.6 mph74%29.92 "HgN/A
Weather by CustomWeather, © 2015

See weather overviewHow to use our weather pages